COSMOS 2251 DEB, 34878

Orbit data source: Space-Track

COSMOS 2251 DEB, 34878 is space debris in LEO originally from a launch on Wed, 16 Jun 1993 UTC launched from the Plesetsk Missile And Space Complex (PKMTR). The debris from Iridium 33, an American commercial communications satellite, has been tracked extensively since its accidental collision with the defunct Russian satellite Cosmos 2251 in 2009. This event, occurring at high speed in low Earth orbit (LEO), generated thousands of pieces of space debris, significantly increasing the risk of further collisions. The Iridium 33 debris cloud has impacted space traffic management and orbital debris mitigation strategies, making it a subject of ongoing study in space situational awareness.

Loading next visibility...
Identifier
34878, 1993-036ACR
Orbit
LEO
Country
Flag of CISCIS
Related business
Manufacturer
Unknown
Mission
Spacecraft
Bus & Motor
Unknown
Mass
Unknown
Launch date (UTC)
1993-06-16 (33 years ago)
Launch vehicle
Unknown
Launch site
Plesetsk Missile And Space Complex (PKMTR)
Object type
Payload
Rocket body
Debris
Shape & HBR
Unknown shape, 0.1 m
Radar Cross Section
Small (<0.1 m²)

Expand to show TLE details & history
Last TLE update: 1 day ago

TLE from 1 day ago
0 COSMOS 2251 DEB
1 34878U 93036ACR 25354.11937808  .00000536  00000-0  54187-3 0  9999
2 34878  73.9650  35.6157 0435602  17.6827  11.8411 13.44200085813724
Epoch: 2025-12-20T02:51Z
TLE epoch observation values (Epoch: 2025-12-20T02:51:54.266Z)
Latitude
29.35315°
Longitude
-87.05975°
Altitude
778.969 km
Speed
7.624 km/s
True Right ascension
02h 59m 28s
True Declination
29° 12' 25"
Sunlit
Object was in full shadow at epoch
Visualization orbit readout
Latitude
Unknown
Longitude
Unknown
Altitude
Unknown
Speed
Unknown
Apparent Right ascension
Unknown
Apparent Declination
Unknown
Sunlit
N/A
Visualization observer readout
Local Sidereal Time
11:47:47
Azimuth
Unknown
Elevation
Unknown
Doppler factor
Unknown
Orbital elements
Apogee altitude
1,416.775 km
Perigee altitude
766.026 km
Semi-major axis
7,469.537 km
Eccentricity
0.04356
Inclination
73.965°
RAAN
35.6157°
Arg. of periapsis
17.6827°
True anomaly
12.92283°
Mean anomaly
11.8411°
Eccentric anomaly
12.37602°
Mean motion
3.36204 °/min
Orbital period
107.08 mins
BSTAR
0.00054187
Loading maneuver chart data...
Computing Atmospheric mass density...
Loading historical data...
Loading historical data...
Loading historical data...
Loading historical data...
Loading historical data...
Loading historical data...
Loading historical data...

Documentation

Showing up to 5 results
|